Regional Weather Roundup
Issued by NWS

Home | Current Version | Previous Version | Text Only | Print | Product List | Glossary Off
Versions: 1 2 3 4 5 6 7 8 9 10 11 12 13 14 15 16 17 18 19 20 21 22 23 24 25 26 27 28 29 30 31 32 33 34 35 36 37 38 39 40 41 42 43 44 45 46 47 48 49 50

000
ASUS43 KFSD 220310
RWRSD

WEATHER ROUNDUP FOR SOUTH DAKOTA
NATIONAL WEATHER SERVICE SIOUX FALLS SD
1000 PM CDT SUN SEP 21 2014

NOTE: "FAIR" INDICATES FEW OR NO CLOUDS BELOW 12,000 FEET WITH NO
SIGNIFICANT WEATHER AND/OR OBSTRUCTIONS TO VISIBILITY.


SDZ001>005-009-010-012>017-220400-
NORTHWEST AND NORTH CENTRAL SOUTH DAKOTA

CITY           SKY/WX    TMP DP  RH WIND       PRES   REMARKS
BUFFALO          N/A     54  36  50 SE8       30.17S
FAITH            N/A     57  39  51 SE10      30.24
MOBRIDGE       CLEAR     52  45  77 SE5       30.21S
$$

SDZ012>016-024>037-041>051-057-063-072>074-220400-
SOUTHWEST AND SOUTH CENTRAL SOUTH DAKOTA

CITY           SKY/WX    TMP DP  RH WIND       PRES   REMARKS
RAPID CTY ARPT PTCLDY    50  39  66 CALM      30.26R
PIERRE         CLEAR     56  41  57 NE5       30.23S
CUSTER         PTCLDY    54  34  46 CALM      30.35S
ELLSWORTH AFB  PTCLDY    58  38  47 SW6       30.25S
PHILIP         CLEAR     52  39  61 E6        30.25R
PINE RIDGE     PTCLDY    54  40  59 CALM      30.27S
WINNER         FAIR      58  41  53 S5        30.27R
$$

SDZ004>011-016>023-039-040-220400-
NORTHEAST SOUTH DAKOTA

CITY           SKY/WX    TMP DP  RH WIND       PRES   REMARKS
ABERDEEN       CLEAR     50  45  83 SE3       30.24R
WATERTOWN      CLEAR     50  44  80 CALM      30.25S
SISSETON         N/A     48  47  96 CALM      30.23R
$$

SDZ017-020-022-023-036>040-048>070-220400-
SOUTHEAST SOUTH DAKOTA

CITY           SKY/WX    TMP DP  RH WIND       PRES   REMARKS
SIOUX FALLS    CLEAR     54  47  77 CALM      30.26R
HURON          CLEAR     53  45  74 SE5       30.25R
CHAMBERLAIN    CLEAR     54  45  72 E3        30.26S
MITCHELL       CLEAR     57  48  72 E3        30.26R
YANKTON        CLEAR     52  45  76 NW5       30.27R
$$

ABBREVIATIONS USED IN REMARKS
   TC - TEMPERATURE IN CELSIUS
  WCI - WIND CHILL INDEX
   HX - HEAT INDEX
  VSB - VISIBILITY



USA.gov is the U.S. government's official web portal to all federal, state and local government web resources and services.